S-NET D

Last updated on Wed Aug 19 2026 00:03:17 GMT+0000 (Coordinated Universal Time)

1 43186U 18014G 26230.20435118 .00004072 00000+0 20838-3 0 9999 2 43186 97.5281 134.6069 0008739 151.6666 208.5045 15.17164477468165
UTC large
Height (km)
Speed (km/s)
/
Latitude / Longitude
Inclination (degrees)
Orbital Period (minutes)
Azimuth
Elevation
Range (km)
Doppler Factor

Next 0 passes for location: London (51.5072 / 0.1276)

No passes found over London.
S-NET D